Location: Gorze? G�rny
(49.8500°N, 19.5000°E)
Time: 13:14:02
(UTC+00:00)

Cosmos 2082 Rocket - Pass Details

Date: 13 May 2021
Orbit: 834 x 853 km, 71.0° (Epoch: 22 June)

Event Time Altitude Azimuth Distance (km) Brightness Sun altitude
Rises 19:23:24 0° 332° (NNW) 3,393 7.0 -9.2°
Reaches altitude 10° 19:25:53 10° 336° (NNW) 2,456 5.9 -9.5°
Maximum altitude 19:31:28 61° 57° (ENE) 945 2.4 -10.1°
Enters shadow 19:36:18 14° 136° (SE) 2,181 3.7 -10.6°
